Total_Precipitation_Accumulation
0.07 0.09 0.16 0.36 0.42 0.33 0.30 0.29 0.33 0.32 0.36 0.45 0.53 0.55 0.56 0.57 0.50 0.41 0.34 0.29 0.24 0.20 0.21 0.23 0.27 0.34 0.45 0.72 0.91 0.93 0.92 0.80 0.66 0.55 0.45 0.43 0.46 0.49 0.46 0.41 0.44 0.45 0.53 0.62
0.05 0.05 0.06 0.10 0.08 0.07 0.09 0.15 0.22 0.27 0.36 0.44 0.46 0.45 0.48 0.47 0.35 0.27 0.22 0.20 0.18 0.16 0.14 0.11 0.11 0.16 0.27 0.46 0.62 0.68 0.74 0.70 0.54 0.48 0.43 0.39 0.42 0.48 0.49 0.39 0.38 0.40 0.44 0.42
0.05 0.04 0.04 0.04 0.03 0.08 0.12 0.14 0.18 0.29 0.42 0.48 0.49 0.55 0.84 0.86 0.55 0.32 0.26 0.23 0.23 0.22 0.20 0.17 0.14 0.14 0.17 0.24 0.33 0.40 0.45 0.45 0.36 0.34 0.41 0.42 0.45 0.44 0.38 0.31 0.34 0.36 0.32 0.28
0.06 0.06 0.08 0.05 0.03 0.09 0.13 0.13 0.13 0.16 0.19 0.24 0.35 0.50 0.67 0.75 0.60 0.40 0.36 0.29 0.25 0.21 0.18 0.15 0.12 0.12 0.13 0.15 0.18 0.20 0.20 0.17 0.14 0.21 0.30 0.32 0.30 0.28 0.23 0.23 0.29 0.36 0.31 0.29
0.06 0.15 0.14 0.03 0.02 0.05 0.07 0.06 0.04 0.05 0.06 0.08 0.12 0.13 0.15 0.20 0.24 0.21 0.16 0.13 0.08 0.06 0.04 0.03 0.03 0.03 0.03 0.02 0.02 0.02 0.02 0.02 0.04 0.05 0.06 0.06 0.06 0.07 0.11 0.15 0.20 0.19 0.23 0.37
0.03 0.08 0.08 0.02 0.01 0.01 0.03 0.07 0.02 0.01 0.01 0.02 0.05 0.09 0.07 0.14 0.09 0.03 0.01 0.01 0.01 0.00 0.01 0.00 0.00 0.00 0.00 0.00 0.00 0.00 0.00 0.00 0.00 0.01 0.01 0.01 0.01 0.01 0.03 0.06 0.09 0.10 0.14 0.27
0.03 0.04 0.02 0.01 0.00 0.00 0.02 0.03 0.01 0.00 0.00 0.00 0.01 0.02 0.02 0.09 0.07 0.00 0.00 0.00 0.00 0.00 0.00 0.00 0.00 0.00 0.00 0.00 0.00 0.00 0.00 0.00 0.00 0.01 0.01 0.01 0.02 0.01 0.01 0.01 0.02 0.06 0.10 0.14
0.01 0.02 0.01 0.00 0.00 0.00 0.00 0.00 0.00 0.00 0.00 0.00 0.00 0.00 0.01 0.04 0.06 0.00 0.00 0.00 0.00 0.00 0.00 0.00 0.00 0.00 0.00 0.00 0.00 0.00 0.00 0.00 0.00 0.01 0.01 0.01 0.03 0.02 0.01 0.01 0.02 0.03 0.06 0.10
0.01 0.01 0.00 0.00 0.00 0.00 0.00 0.00 0.00 0.00 0.00 0.00 0.00 0.00 0.00 0.02 0.06 0.02 0.00 0.00 0.00 0.00 0.00 0.00 0.00 0.00 0.00 0.00 0.00 0.00 0.00 0.01 0.00 0.00 0.01 0.01 0.01 0.01 0.01 0.01 0.02 0.02 0.04 0.08
0.01 0.00 0.00 0.00 0.00 0.00 0.00 0.00 0.00 0.00 0.00 0.00 0.00 0.00 0.00 0.01 0.04 0.02 0.00 0.00 0.00 0.00 0.00 0.00 0.00 0.00 0.00 0.00 0.00 0.00 0.00 0.00 0.00 0.01 0.01 0.01 0.01 0.01 0.01 0.02 0.02 0.02 0.04 0.06
0.01 0.00 0.00 0.00 0.00 0.00 0.00 0.00 0.00 0.00 0.00 0.00 0.00 0.00 0.00 0.00 0.01 0.01 0.00 0.00 0.00 0.00 0.00 0.00 0.00 0.00 0.00 0.00 0.00 0.00 0.00 0.00 0.00 0.01 0.01 0.01 0.01 0.01 0.01 0.01 0.02 0.03 0.03 0.05
0.00 0.00 0.00 0.00 0.00 0.00 0.00 0.00 0.00 0.00 0.00 0.00 0.00 0.00 0.00 0.00 0.00 0.00 0.00 0.00 0.00 0.00 0.00 0.00 0.00 0.00 0.00 0.00 0.00 0.00 0.00 0.00 0.00 0.01 0.01 0.01 0.02 0.02 0.01 0.02 0.03 0.03 0.03 0.04
0.00 0.00 0.00 0.00 0.00 0.00 0.00 0.00 0.00 0.00 0.00 0.00 0.00 0.00 0.00 0.00 0.00 0.00 0.00 0.00 0.00 0.00 0.00 0.00 0.00 0.00 0.00 0.00 0.00 0.00 0.00 0.00 0.00 0.00 0.01 0.01 0.01 0.02 0.03 0.03 0.02 0.02 0.03 0.03
0.00 0.00 0.00 0.00 0.00 0.00 0.00 0.00 0.00 0.00 0.00 0.00 0.00 0.00 0.00 0.00 0.00 0.00 0.00 0.00 0.00 0.00 0.00 0.00 0.00 0.00 0.00 0.00 0.00 0.00 0.00 0.00 0.00 0.01 0.01 0.01 0.01 0.01 0.03 0.05 0.06 0.04 0.03 0.03
0.00 0.00 0.00 0.00 0.00 0.00 0.00 0.01 0.01 0.00 0.00 0.00 0.00 0.00 0.00 0.00 0.00 0.00 0.00 0.00 0.00 0.00 0.00 0.00 0.00 0.00 0.00 0.01 0.01 0.01 0.01 0.01 0.01 0.01 0.02 0.02 0.02 0.02 0.03 0.04 0.05 0.05 0.06 0.06
0.00 0.00 0.00 0.00 0.00 0.00 0.00 0.00 0.00 0.01 0.00 0.00 0.01 0.01 0.01 0.01 0.01 0.01 0.00 0.00 0.00 0.00 0.00 0.01 0.01 0.01 0.01 0.01 0.01 0.01 0.01 0.01 0.02 0.02 0.03 0.03 0.03 0.04 0.04 0.05 0.05 0.06 0.06 0.07
0.01 0.01 0.01 0.01 0.01 0.00 0.00 0.00 0.00 0.00 0.00 0.00 0.00 0.00 0.00 0.00 0.00 0.00 0.00 0.00 0.00 0.00 0.00 0.01 0.01 0.01 0.01 0.01 0.01 0.01 0.02 0.03 0.03 0.03 0.04 0.04 0.04 0.05 0.06 0.06 0.06 0.06 0.06 0.08
0.02 0.02 0.02 0.01 0.01 0.01 0.00 0.00 0.00 0.00 0.01 0.01 0.01 0.01 0.01 0.01 0.01 0.00 0.00 0.00 0.00 0.00 0.01 0.01 0.01 0.01 0.01 0.02 0.02 0.03 0.03 0.03 0.03 0.04 0.05 0.05 0.05 0.05 0.05 0.06 0.07 0.08 0.08 0.08
0.02 0.02 0.02 0.01 0.01 0.01 0.01 0.01 0.00 0.00 0.00 0.00 0.00 0.00 0.00 0.00 0.00 0.00 0.00 0.00 0.00 0.00 0.00 0.01 0.01 0.01 0.01 0.02 0.03 0.04 0.05 0.05 0.06 0.06 0.06 0.06 0.07 0.06 0.07 0.08 0.09 0.10 0.10 0.10
0.02 0.02 0.02 0.02 0.01 0.01 0.01 0.01 0.00 0.00 0.00 0.00 0.00 0.00 0.00 0.00 0.00 0.00 0.00 0.01 0.01 0.01 0.01 0.01 0.01 0.01 0.02 0.02 0.04 0.05 0.06 0.06 0.07 0.07 0.07 0.08 0.09 0.09 0.09 0.09 0.10 0.11 0.11 0.11
0.04 0.03 0.02 0.02 0.01 0.01 0.01 0.01 0.01 0.01 0.01 0.01 0.01 0.01 0.01 0.01 0.00 0.00 0.01 0.01 0.02 0.02 0.02 0.02 0.02 0.03 0.03 0.04 0.06 0.06 0.07 0.07 0.07 0.08 0.09 0.09 0.09 0.10 0.11 0.11 0.12 0.13 0.14 0.14
0.04 0.03 0.03 0.02 0.02 0.01 0.01 0.01 0.01 0.01 0.01 0.01 0.01 0.01 0.01 0.01 0.01 0.01 0.02 0.02 0.03 0.03 0.03 0.03 0.03 0.04 0.05 0.08 0.06 0.06 0.06 0.07 0.08 0.09 0.09 0.09 0.10 0.10 0.11 0.14 0.15 0.16 0.16 0.19
0.05 0.05 0.04 0.03 0.02 0.02 0.01 0.01 0.01 0.01 0.01 0.01 0.01 0.01 0.02 0.02 0.02 0.03 0.03 0.03 0.03 0.04 0.05 0.05 0.05 0.05 0.08 0.07 0.07 0.07 0.08 0.08 0.09 0.10 0.10 0.11 0.12 0.12 0.13 0.15 0.18 0.19 0.21 0.22
0.06 0.05 0.05 0.05 0.05 0.05 0.03 0.02 0.02 0.01 0.01 0.01 0.02 0.02 0.02 0.02 0.02 0.03 0.03 0.03 0.04 0.05 0.05 0.06 0.08 0.10 0.12 0.10 0.09 0.09 0.09 0.10 0.11 0.13 0.13 0.13 0.14 0.15 0.17 0.19 0.22 0.23 0.25 0.27
0.06 0.07 0.07 0.07 0.07 0.08 0.07 0.05 0.04 0.04 0.04 0.03 0.03 0.03 0.03 0.03 0.04 0.05 0.05 0.05 0.06 0.06 0.06 0.07 0.09 0.12 0.11 0.10 0.11 0.11 0.10 0.11 0.13 0.15 0.16 0.18 0.18 0.19 0.20 0.22 0.26 0.30 0.31 0.33
0.05 0.06 0.07 0.07 0.06 0.06 0.07 0.07 0.07 0.06 0.05 0.05 0.05 0.04 0.04 0.04 0.05 0.06 0.07 0.08 0.09 0.10 0.09 0.09 0.09 0.10 0.10 0.11 0.11 0.11 0.10 0.10 0.12 0.14 0.16 0.19 0.21 0.22 0.24 0.26 0.29 0.33 0.38 0.38
0.05 0.05 0.05 0.06 0.07 0.07 0.07 0.08 0.09 0.10 0.09 0.09 0.09 0.08 0.07 0.07 0.07 0.07 0.08 0.08 0.09 0.10 0.11 0.12 0.13 0.13 0.13 0.13 0.14 0.14 0.15 0.15 0.16 0.17 0.19 0.21 0.24 0.25 0.26 0.28 0.30 0.34 0.37 0.36